Location: Goettingen
(51.5300°N, 9.9433°E)
Time: 05:51:48
(UTC+01:00)

ISS - Pass Details

Date: 03 December 2019
Orbit: 411 x 421 km, 51.6° (Epoch: 15 December)

Event Time Altitude Azimuth Distance (km) Brightness Sun altitude
Rises 17:35:21 0° 271° (W) 2,356 1.5 -12.0°
Reaches altitude 10° 17:37:27 10° 272° (W) 1,495 0.2 -12.3°
Maximum altitude 17:40:48 86° 2° (N) 424 -3.8 -12.8°
Enters shadow 17:42:48 23° 90° (E) 950 -2.5 -13.1°
